EW8485 Weather Reports


Display with metric or nautical units.
time (UTC)temp
F
wind
direction
speed
MPH
gust
MPH
rain 1hr
in
rain 24hr
in
rain mn
in
humidity
%
barometer
mb
20260905052725 80 121 0.0 2.0 0.00 0.07 0.00 93 1009.3
20260905052230 80 121 0.0 2.0 0.00 0.07 0.00 93 1009.3
20260905051727 80 117 0.0 1.0 0.00 0.07 0.00 93 1009.3
20260905051227 80 117 0.0 1.0 0.00 0.07 0.00 93 1009.3
20260905050727 80 117 0.0 1.0 0.00 0.07 0.00 93 1009.3
20260905050220 80 202 0.0 0.0 0.00 0.07 0.00 93 1009.3
20260905045720 80 205 0.0 0.0 0.00 0.07 0.07 93 1009.4
20260905045218 80 202 0.0 0.0 0.00 0.07 0.07 93 1009.3
20260905044716 80 202 0.0 0.0 0.00 0.07 0.07 92 1009.2
20260905044216 80 202 0.0 0.0 0.00 0.07 0.07 92 1009.2
20260905043716 80 202 0.0 0.0 0.00 0.07 0.07 92 1009.3
20260905043445 80 203 0.0 0.0 0.00 0.07 0.07 92 1009.3
20260905042713 81 203 0.0 1.0 0.00 0.07 0.07 92 1009.5
20260905042444 81 203 0.0 1.0 0.00 0.07 0.07 92 1009.5
20260905041709 81 127 0.0 0.0 0.00 0.07 0.07 92 1009.5
20260905041207 81 127 0.0 0.0 0.00 0.07 0.07 92 1009.5
20260905040706 81 127 0.0 0.0 0.00 0.07 0.07 91 1009.5
20260905040205 81 127 0.0 0.0 0.00 0.07 0.07 91 1009.6
20260905035707 81 127 0.0 0.0 0.00 0.07 0.07 91 1009.5
20260905035429 81 127 0.0 1.0 0.00 0.07 0.07 90 1009.5
20260905034657 81 127 0.0 1.0 0.00 0.07 0.07 90 1009.6
20260905034154 81 127 0.0 1.0 0.00 0.07 0.07 90 1009.6
20260905033653 81 127 0.0 2.0 0.00 0.07 0.07 90 1009.6
20260905033152 81 127 0.0 2.0 0.00 0.07 0.07 89 1009.8
20260905032646 82 89 0.0 3.0 0.00 0.07 0.07 89 1009.7
20260905032416 82 115 0.0 3.0 0.00 0.07 0.07 89 1009.8
20260905031643 82 98 0.0 2.0 0.00 0.07 0.07 89 1009.8
20260905031140 82 109 1.0 3.0 0.00 0.07 0.07 89 1009.8
20260905030639 82 110 1.0 3.0 0.00 0.07 0.07 89 1009.7
20260905030138 82 123 0.0 2.0 0.00 0.07 0.07 88 1009.7
20260905025911 82 130 0.0 2.0 0.00 0.07 0.07 88 1009.7
20260905025636 82 130 0.0 2.0 0.00 0.07 0.07 88 1009.7
20260905025136 82 105 1.0 2.0 0.00 0.07 0.07 88 1009.6
20260905024636 82 75 1.0 2.0 0.00 0.07 0.07 88 1009.6
20260905024134 82 127 1.0 3.0 0.00 0.07 0.07 88 1009.6
20260905023634 82 116 0.0 3.0 0.00 0.07 0.07 87 1009.6
20260905023131 82 128 1.0 3.0 0.00 0.07 0.07 87 1009.5
20260905022630 82 99 1.0 3.0 0.00 0.07 0.07 87 1009.3
20260905022129 83 103 1.0 3.0 0.00 0.07 0.07 87 1009.3
20260905021630 83 68 1.0 3.0 0.00 0.07 0.07 86 1009.2
20260905021359 83 116 1.0 3.0 0.00 0.07 0.07 86 1009.2
20260905020858 83 125 1.0 3.0 0.00 0.07 0.07 86 1009.2
20260905020122 83 105 1.0 2.0 0.00 0.07 0.07 85 1009.1
20260905015621 83 108 1.0 3.0 0.00 0.07 0.07 85 1009.0
20260905015118 83 112 1.0 3.0 0.00 0.07 0.07 85 1009.0
20260905014617 83 94 1.0 4.0 0.00 0.07 0.07 84 1008.9
20260905014116 83 126 1.0 4.0 0.00 0.07 0.07 84 1008.9
20260905013610 84 124 0.0 2.0 0.00 0.07 0.07 84 1008.9
20260905013108 84 133 0.0 2.0 0.00 0.07 0.07 83 1008.8
20260905012606 84 124 0.0 2.0 0.00 0.07 0.07 82 1008.6
20260905012104 84 130 0.0 2.0 0.00 0.07 0.07 82 1008.7
20260905011604 85 122 1.0 3.0 0.00 0.07 0.07 81 1008.7
20260905011101 85 102 1.0 6.0 0.00 0.07 0.07 80 1008.5
20260905010600 85 115 1.0 6.0 0.00 0.07 0.07 80 1008.5
20260905010058 85 120 1.0 5.0 0.00 0.07 0.07 79 1008.4
20260905005558 85 122 1.0 5.0 0.00 0.07 0.07 79 1008.4
20260905005058 86 120 2.0 3.0 0.00 0.07 0.07 78 1008.3
20260905004558 86 75 1.0 4.0 0.00 0.07 0.07 78 1008.5
20260905004051 86 129 1.0 4.0 0.00 0.07 0.07 78 1008.5
20260905003552 86 116 0.0 2.0 0.00 0.07 0.07 77 1008.4
20260905003325 87 134 1.0 4.0 0.00 0.07 0.07 77 1008.3
20260905002552 87 143 1.0 4.0 0.00 0.07 0.07 76 1008.1
20260905002052 87 132 1.0 4.0 0.00 0.07 0.07 76 1008.0
20260905001551 87 126 1.0 4.0 0.00 0.07 0.07 75 1008.0
20260905001045 88 134 1.0 3.0 0.00 0.07 0.07 75 1008.0
20260905000546 88 136 1.0 3.0 0.00 0.07 0.07 74 1008.0
20260905000045 89 91 1.0 4.0 0.00 0.07 0.07 72 1007.9
20260904235546 89 110 1.0 4.0 0.00 0.07 0.07 71 1008.0
20260904235046 90 85 2.0 5.0 0.00 0.07 0.07 70 1008.0
20260904234546 90 84 2.0 5.0 0.00 0.07 0.07 69 1007.9
20260904234039 90 94 2.0 5.0 0.00 0.07 0.07 69 1008.0
20260904233539 90 109 2.0 7.0 0.00 0.07 0.07 69 1008.0
20260904233040 90 68 2.0 7.0 0.00 0.07 0.07 68 1008.0
20260904232540 90 146 3.0 8.0 0.00 0.07 0.07 69 1008.0
20260904232040 90 95 3.0 8.0 0.00 0.07 0.07 69 1008.0
20260904231539 90 94 2.0 7.0 0.00 0.07 0.07 70 1008.1
20260904231036 90 73 1.0 6.0 0.00 0.07 0.07 71 1008.0
20260904230534 90 128 1.0 6.0 0.00 0.07 0.07 71 1008.0
20260904230033 89 91 1.0 3.0 0.00 0.07 0.07 72 1008.0
20260904225534 88 153 2.0 3.0 0.00 0.07 0.07 74 1008.0
20260904225032 88 187 2.0 5.0 0.00 0.07 0.07 74 1008.0
20260904224801 88 123 1.0 5.0 0.00 0.07 0.07 74 1008.0
20260904224027 88 87 1.0 3.0 0.00 0.07 0.07 74 1008.1
20260904223526 89 78 1.0 5.0 0.00 0.07 0.07 73 1008.1
20260904223023 89 153 2.0 6.0 0.00 0.07 0.07 72 1008.1
20260904222523 90 143 2.0 6.0 0.00 0.07 0.07 70 1008.2
20260904222023 91 125 1.0 5.0 0.00 0.07 0.07 67 1008.2
20260904221523 92 120 1.0 2.0 0.00 0.07 0.07 64 1008.1
20260904221021 92 132 1.0 5.0 0.00 0.07 0.07 63 1008.1
20260904220521 92 84 1.0 5.0 0.00 0.07 0.07 63 1008.0
20260904220022 93 76 1.0 3.0 0.00 0.07 0.07 61 1007.9
20260904215521 93 115 2.0 6.0 0.00 0.07 0.07 60 1008.0
20260904215021 94 91 3.0 6.0 0.00 0.07 0.07 59 1008.1
20260904214522 95 105 2.0 5.0 0.00 0.07 0.07 59 1008.2
20260904214014 96 62 1.0 4.0 0.00 0.07 0.07 57 1008.2
20260904213516 97 67 1.0 3.0 0.00 0.07 0.07 58 1008.2
20260904213014 96 70 1.0 4.0 0.00 0.07 0.07 60 1008.3
20260904212512 96 239 1.0 4.0 0.00 0.07 0.07 61 1008.4
20260904212013 95 96 1.0 4.0 0.00 0.07 0.07 60 1008.4
20260904211513 95 68 2.0 5.0 0.00 0.07 0.07 61 1008.4
20260904211014 94 236 2.0 5.0 0.00 0.07 0.07 65 1008.5
20260904210740 94 95 2.0 4.0 0.00 0.07 0.07 63 1008.6
20260904210242 94 110 2.0 6.0 0.00 0.07 0.07 65 1008.6
20260904205510 94 91 2.0 6.0 0.00 0.07 0.07 66 1008.6
20260904205008 94 122 1.0 7.0 0.00 0.07 0.07 65 1008.7
20260904204515 94 138 1.0 4.0 0.00 0.07 0.07 65 1008.8
20260904204508 94 115 1.0 7.0 0.00 0.07 0.07 62 1008.7
20260904203510 94 100 1.0 4.0 0.00 0.07 0.07 65 1008.9
20260904203236 94 155 1.0 3.0 0.00 0.07 0.07 65 1009.0
20260904202736 93 257 1.0 3.0 0.00 0.08 0.07 69 1009.1
20260904202006 93 81 1.0 3.0 0.00 0.08 0.07 68 1009.1
20260904201505 92 136 1.0 3.0 0.00 0.09 0.07 69 1009.1
20260904201005 91 79 2.0 4.0 0.00 0.09 0.07 72 1009.2
20260904200506 91 71 1.0 4.0 0.00 0.09 0.07 71 1009.3
20260904200000 92 64 1.0 3.0 0.00 0.09 0.07 72 1009.3
20260904195502 91 103 1.0 4.0 0.00 0.09 0.07 74 1009.4
20260904195232 89 104 2.0 5.0 0.00 0.09 0.07 75 1009.5
20260904194500 89 82 2.0 5.0 0.00 0.09 0.07 76 1009.6
20260904194002 89 51 1.0 4.0 0.00 0.09 0.07 75 1009.7
20260904193502 89 91 1.0 4.0 0.00 0.09 0.07 77 1009.7
20260904193227 88 105 1.0 4.0 0.00 0.09 0.07 78 1009.7
20260904192456 88 94 2.0 4.0 0.00 0.09 0.07 78 1009.7
20260904192230 88 74 2.0 4.0 0.00 0.09 0.07 79 1009.8
20260904191456 88 104 2.0 4.0 0.00 0.09 0.07 77 1009.8
20260904191002 88 61 2.0 4.0 0.01 0.09 0.07 77 1009.9
20260904190956 88 98 2.0 4.0 0.00 0.09 0.07 75 1009.8
20260904185956 87 75 1.0 4.0 0.01 0.09 0.07 78 1010.0
20260904185457 86 40 1.0 4.0 0.01 0.10 0.07 81 1010.0
20260904185228 85 335 1.0 4.0 0.01 0.10 0.07 81 1010.2
20260904184456 85 91 1.0 4.0 0.01 0.13 0.07 83 1010.4
20260904184228 83 83 1.0 3.0 0.01 0.14 0.07 84 1010.6
20260904183458 83 91 1.0 3.0 0.01 0.15 0.07 86 1010.7
20260904182958 82 87 1.0 2.0 0.01 0.16 0.07 88 1010.8
20260904182456 81 86 1.0 2.0 0.01 0.16 0.07 90 1010.8
20260904182227 81 77 0.0 2.0 0.01 0.16 0.07 89 1010.9
20260904181457 81 99 0.0 2.0 0.01 0.16 0.07 89 1011.1
20260904180957 81 85 1.0 5.0 0.01 0.16 0.07 91 1011.1
20260904180456 81 79 2.0 5.0 0.00 0.15 0.06 90 1011.2
20260904175955 81 76 1.0 3.0 0.00 0.15 0.06 90 1011.2
20260904175724 81 101 0.0 3.0 0.00 0.15 0.06 92 1011.1
20260904174953 81 91 0.0 2.0 0.00 0.15 0.06 92 1011.0
20260904174448 81 91 0.0 2.0 0.00 0.15 0.06 92 1011.1
20260904173945 81 86 0.0 2.0 0.01 0.15 0.06 92 1011.3
20260904173446 81 72 0.0 2.0 0.01 0.15 0.06 91 1011.3
20260904173214 81 70 0.0 2.0 0.02 0.15 0.06 93 1011.2
20260904172441 80 82 0.0 2.0 0.02 0.15 0.06 93 1011.1
20260904171938 80 89 0.0 2.0 0.03 0.15 0.06 93 1011.3
20260904171436 80 89 0.0 0.0 0.03 0.15 0.06 93 1011.2
20260904170935 79 89 0.0 0.0 0.03 0.15 0.06 93 1011.1
20260904170436 79 89 0.0 1.0 0.04 0.15 0.06 93 1011.0
20260904165934 78 108 0.0 1.0 0.04 0.15 0.06 93 1011.0
20260904165433 78 134 0.0 2.0 0.06 0.15 0.06 93 1011.1
20260904164926 78 143 1.0 4.0 0.06 0.15 0.06 93 1011.1
20260904164425 78 104 1.0 4.0 0.06 0.15 0.06 93 1011.2
20260904163924 78 93 2.0 6.0 0.05 0.14 0.06 93 1011.1
20260904163424 78 94 2.0 6.0 0.05 0.14 0.05 93 1011.1
20260904162925 78 124 1.0 4.0 0.04 0.13 0.04 92 1011.2
20260904162425 78 94 2.0 4.0 0.04 0.13 0.04 91 1011.1
20260904161923 78 77 2.0 4.0 0.03 0.12 0.03 90 1011.2
20260904161423 79 101 1.0 4.0 0.03 0.12 0.03 91 1011.4
20260904160923 79 113 1.0 4.0 0.03 0.12 0.03 89 1011.5
20260904160422 80 148 1.0 6.0 0.02 0.11 0.03 89 1011.2
20260904160153 81 81 2.0 6.0 0.02 0.11 0.02 89 1011.0
20260904155424 81 78 2.0 6.0 0.00 0.09 0.00 89 1010.9
20260904154922 81 80 2.0 6.0 0.00 0.09 0.00 88 1010.8
20260904154417 82 88 1.0 5.0 0.00 0.09 0.00 85 1010.7
20260904153915 82 115 2.0 4.0 0.00 0.09 0.00 84 1010.7
20260904153414 82 75 3.0 4.0 0.00 0.09 0.00 82 1010.7
20260904152915 83 36 3.0 5.0 0.00 0.09 0.00 83 1010.7
20260904152415 84 49 2.0 6.0 0.00 0.09 0.00 82 1010.4
20260904151915 86 72 1.0 6.0 0.00 0.09 0.00 82 1010.3
20260904151412 87 100 1.0 2.0 0.00 0.09 0.00 82 1010.3
20260904150910 87 155 1.0 2.0 0.00 0.09 0.00 82 1010.4
20260904150409 87 97 0.0 2.0 0.00 0.09 0.00 82 1010.4
20260904145909 87 86 0.0 1.0 0.00 0.09 0.00 81 1010.2
20260904145638 88 93 0.0 1.0 0.00 0.09 0.00 79 1010.2
20260904144907 88 96 0.0 1.0 0.00 0.09 0.00 80 1010.2
20260904144404 89 96 1.0 3.0 0.00 0.09 0.00 79 1010.3
20260904143903 89 91 1.0 3.0 0.00 0.09 0.00 77 1010.3
20260904143402 90 93 1.0 3.0 0.00 0.09 0.00 75 1010.2
20260904142903 91 238 1.0 3.0 0.00 0.09 0.00 77 1010.1
20260904142401 91 170 1.0 3.0 0.00 0.09 0.00 77 1010.1
20260904141901 90 266 1.0 2.0 0.00 0.09 0.00 78 1010.1
20260904141358 90 89 1.0 3.0 0.00 0.09 0.00 79 1010.1
20260904140856 89 86 1.0 4.0 0.00 0.09 0.00 82 1010.1
20260904140401 88 83 2.0 5.0 0.00 0.09 0.00 83 1010.1
20260904140356 88 68 2.0 5.0 0.00 0.09 0.00 83 1010.1
20260904135355 87 94 1.0 3.0 0.00 0.09 0.00 85 1010.2
20260904134854 87 92 1.0 3.0 0.00 0.09 0.00 87 1010.2
20260904134354 85 120 2.0 4.0 0.00 0.09 0.00 88 1010.2
20260904133851 85 72 2.0 5.0 0.00 0.09 0.00 88 1010.1
20260904133350 85 94 2.0 5.0 0.00 0.09 0.00 88 1010.1
20260904133120 85 81 2.0 5.0 0.00 0.09 0.00 89 1010.1
20260904132621 84 102 2.0 5.0 0.00 0.09 0.00 90 1010.1
20260904132119 84 95 3.0 5.0 0.00 0.09 0.00 90 1010.0
20260904131347 83 88 3.0 6.0 0.00 0.09 0.00 91 1009.9
20260904130844 83 75 2.0 6.0 0.00 0.09 0.00 91 1009.8
20260904130344 83 77 1.0 3.0 0.00 0.09 0.00 92 1009.7
20260904125852 82 109 1.0 2.0 0.00 0.09 0.00 94 1009.7
20260904125845 82 99 1.0 3.0 0.00 0.09 0.00 93 1009.8
20260904124843 81 90 0.0 2.0 0.00 0.09 0.00 94 1009.6
20260904124336 81 97 0.0 2.0 0.00 0.09 0.00 95 1009.6
20260904123834 80 96 0.0 2.0 0.00 0.09 0.00 95 1009.5
20260904123333 80 89 0.0 2.0 0.00 0.09 0.00 96 1009.4
20260904123101 80 103 0.0 1.0 0.00 0.09 0.00 96 1009.4
20260904122331 80 103 0.0 1.0 0.00 0.09 0.00 96 1009.4
20260904121827 80 103 0.0 1.0 0.00 0.09 0.00 95 1009.3
20260904121328 80 103 0.0 1.0 0.00 0.09 0.00 96 1009.3
20260904120827 80 103 0.0 2.0 0.00 0.09 0.00 95 1009.2
20260904120327 80 103 0.0 2.0 0.00 0.09 0.00 95 1009.3
20260904120056 80 106 0.0 2.0 0.00 0.09 0.00 96 1009.2
20260904115324 80 316 0.0 0.0 0.00 0.09 0.00 96 1009.1
20260904114819 80 316 0.0 0.0 0.00 0.09 0.00 96 1009.1
20260904114317 80 316 0.0 0.0 0.00 0.09 0.00 96 1009.1
20260904113816 80 316 0.0 0.0 0.00 0.09 0.00 95 1009.2
20260904113313 80 316 0.0 0.0 0.00 0.09 0.00 95 1009.2
20260904112813 80 316 0.0 0.0 0.00 0.09 0.00 95 1009.1
20260904112307 80 316 0.0 0.0 0.00 0.09 0.00 95 1009.1
20260904111805 80 316 0.0 0.0 0.00 0.09 0.00 95 1009.1
20260904111303 80 316 0.0 0.0 0.00 0.09 0.00 95 1009.1
20260904110801 80 316 0.0 0.0 0.00 0.09 0.00 95 1009.0
20260904110301 80 316 0.0 1.0 0.00 0.09 0.00 95 1009.1
20260904105755 80 316 0.0 1.0 0.00 0.09 0.00 95 1009.0
20260904105525 80 309 0.0 1.0 0.00 0.09 0.00 95 1008.9
20260904104751 80 271 0.0 1.0 0.00 0.09 0.00 95 1008.9
20260904104249 80 271 0.0 1.0 0.00 0.09 0.00 95 1008.8
20260904103749 80 271 0.0 1.0 0.00 0.09 0.00 95 1008.9
20260904103241 80 271 0.0 1.0 0.00 0.09 0.00 95 1008.7
20260904102239 80 271 0.0 0.0 0.00 0.09 0.00 95 1008.7
20260904101737 80 271 0.0 0.0 0.00 0.09 0.00 95 1008.7
20260904101236 80 271 0.0 0.0 0.00 0.09 0.00 95 1008.7
20260904100742 80 271 0.0 0.0 0.00 0.09 0.00 95 1008.6
20260904100736 80 271 0.0 0.0 0.00 0.09 0.00 95 1008.7
20260904095731 80 271 0.0 1.0 0.00 0.09 0.00 95 1008.7
20260904095500 80 271 0.0 1.0 0.00 0.09 0.00 95 1008.6
20260904094727 80 271 0.0 0.0 0.00 0.09 0.00 95 1008.6
20260904094227 80 271 0.0 0.0 0.00 0.09 0.00 95 1008.6
20260904093952 80 271 0.0 0.0 0.00 0.09 0.00 95 1008.5
20260904093220 80 271 0.0 0.0 0.00 0.09 0.00 95 1008.5
20260904092719 80 271 0.0 0.0 0.00 0.09 0.00 95 1008.5
20260904092221 80 271 0.0 0.0 0.00 0.09 0.00 95 1008.5
20260904091722 80 271 0.0 0.0 0.00 0.09 0.00 94 1008.4
20260904091221 80 271 0.0 0.0 0.00 0.09 0.00 94 1008.5
20260904090724 80 271 0.0 0.0 0.00 0.09 0.00 94 1008.6
20260904090718 80 271 0.0 0.0 0.00 0.09 0.00 94 1008.5
20260904085719 80 271 0.0 0.0 0.00 0.09 0.00 94 1008.6
20260904085217 80 271 0.0 0.0 0.00 0.09 0.00 94 1008.6
20260904084714 80 271 0.0 0.0 0.00 0.09 0.00 94 1008.6
20260904084215 80 271 0.0 0.0 0.00 0.09 0.00 94 1008.6
20260904083709 80 271 0.0 0.0 0.00 0.09 0.00 94 1008.6
20260904083207 80 271 0.0 0.0 0.00 0.09 0.00 94 1008.5
20260904082705 80 271 0.0 0.0 0.00 0.09 0.00 94 1008.6
20260904082203 80 271 0.0 0.0 0.00 0.09 0.00 94 1008.6
20260904081703 80 271 0.0 0.0 0.00 0.09 0.00 94 1008.6
20260904081159 80 271 0.0 0.0 0.00 0.09 0.00 94 1008.6
20260904080929 80 271 0.0 0.0 0.00 0.09 0.00 94 1008.6
20260904080159 80 271 0.0 0.0 0.00 0.09 0.00 94 1008.6
20260904075659 80 271 0.0 0.0 0.00 0.09 0.00 94 1008.6
20260904075157 80 271 0.0 0.0 0.00 0.09 0.00 94 1008.6
20260904074700 80 271 0.0 0.0 0.00 0.09 0.00 94 1008.7
20260904074152 80 271 0.0 0.0 0.00 0.09 0.00 94 1008.7
20260904073923 80 271 0.0 0.0 0.00 0.09 0.00 93 1008.7
20260904073421 80 271 0.0 0.0 0.00 0.09 0.00 93 1008.7
20260904072651 80 271 0.0 0.0 0.00 0.09 0.00 93 1008.7
20260904072149 80 271 0.0 0.0 0.00 0.09 0.00 93 1008.7
20260904071649 81 271 0.0 0.0 0.00 0.09 0.00 93 1008.7
20260904071415 81 271 0.0 0.0 0.00 0.09 0.00 92 1008.7
20260904070640 81 271 0.0 1.0 0.00 0.09 0.00 92 1008.8
20260904070410 81 271 0.0 1.0 0.00 0.09 0.00 92 1008.9
20260904065637 81 271 0.0 0.0 0.00 0.09 0.00 92 1008.9
20260904065136 81 271 0.0 3.0 0.00 0.09 0.00 92 1008.8
20260904064630 81 94 0.0 3.0 0.00 0.09 0.00 92 1008.9
20260904064129 81 54 0.0 0.0 0.00 0.09 0.00 93 1009.0
20260904063858 81 53 0.0 0.0 0.00 0.09 0.00 93 1009.0
20260904063125 81 54 0.0 2.0 0.00 0.09 0.00 93 1009.0
20260904062625 81 53 0.0 3.0 0.00 0.09 0.00 93 1009.0
20260904062120 81 341 0.0 3.0 0.00 0.09 0.00 93 1008.9
20260904061850 81 145 0.0 3.0 0.00 0.09 0.00 93 1008.9
20260904061120 81 122 1.0 4.0 0.00 0.09 0.00 93 1008.9
20260904060620 81 124 1.0 4.0 0.00 0.09 0.00 93 1009.0
20260904060120 81 113 1.0 3.0 0.00 0.09 0.00 93 1009.1
20260904055621 81 113 1.0 3.0 0.00 0.09 0.00 93 1009.1
20260904055121 81 108 0.0 3.0 0.00 0.09 0.00 93 1009.1
20260904054616 81 155 0.0 2.0 0.00 0.09 0.00 93 1009.1
20260904054116 81 136 1.0 3.0 0.00 0.09 0.00 93 1009.1
20260904053615 81 148 1.0 3.0 0.00 0.09 0.00 93 1009.1
20260904053348 80 97 1.0 3.0 0.00 0.09 0.00 93 1009.0
20260904052843 80 113 1.0 2.0 0.00 0.09 0.00 93 1009.0